Погода в Таманрассете

Алжир     22°47′17″N   5°31′46″E
темп.,
°C
ветер,
м/с
пор.,
м/с
влажн.,
%
обл.,
%
осадки,
мм/ч
давл.,
гПа
погр.,
м
13 мая, чт
чт1301:00+29с69105 0.0 1012138
04:00+27св33112 0.0 101123
07:00+27св34110 0.0 101267
10:00+33св2280 0.0 10112551
13:00+35зюз34689 0.0 10095181
16:00+36зсз55698 0.0 10075151
19:00+34зюз347100 0.0 10073360
22:00+31сз23998 0.0 101065
14 мая, пт
пт1401:00+29с221229 0.0 101014
04:00+27с33120 0.0 100914
07:00+28св33100 0.0 101032
10:00+33ю4486 0.0 10113125
13:00+35ююз55744 0.0 10095061
16:00+36ююз64771 0.0 10075165
19:00+34зсз56799 0.0 10082006
22:00+32ссв4688 0.0 1011192
15 мая, сб
сб1501:00+30св59887 0.0 1010185
04:00+28ссв44101 0.0 101026
07:00+28всв45100 0.0 101265
10:00+34в6475 0.0 10132625
13:00+36юв54615 0.0 10115210
16:00+36ююв327100 0.0 10105067
19:00+34ю12988 0.0 1011265
22:00+31в451197 0.0 101368
16 мая, вс
вс1601:00+30в461296 0.0 101275
04:00+29всв44133 0.0 101138
07:00+29всв58130 0.0 1013144
10:00+34в109112 0.0 10141816
13:00+36вюв64977 0.0 10124742
16:00+37ююв64895 0.0 10094923
19:00+32ссз11111494 0.0 1011625
22:00+31ссв471597 0.0 1014266
17 мая, пн
пн1701:00+29в231623 0.0 101314
04:00+28всв6111899 0.0 1012189
07:00+29в6111697 0.0 1013225
10:00+33в1010115 0.0 10151319
13:00+36юв7595 0.0 10134139
16:00+36ююв74987 0.0 10104655
19:00+31св81115100 0.0 1012485
22:00+31с91114100 0.0 1014257